F1ZVN-13 Weather Reports


time (UTC)temp
F
wind
direction
speed
knots
gust
knots
rain 1hr
in
rain 24hr
in
rain mn
in
humidity
%
barometer
mb
20260510055043 37 180 0.0 0.0 0.00 0.00 0.00 84 1002.4
20260510054837 37 180 0.0 0.0 0.00 0.00 0.00 85 1002.4
20260510054638 37 180 0.0 0.0 0.00 0.00 0.00 84 1002.4
20260510054450 37 180 0.0 0.0 0.00 0.00 0.00 84 1002.4
20260510054235 37 180 0.0 0.0 0.00 0.00 0.00 84 1002.4
20260510054032 37 180 0.0 0.0 0.00 0.00 0.00 85 1002.4
20260510053833 37 180 0.0 0.0 0.00 0.00 0.00 84 1002.3
20260510053630 37 180 0.0 0.0 0.00 0.00 0.00 83 1002.4
20260510053444 37 180 0.0 0.0 0.00 0.00 0.00 83 1002.4
20260510053228 37 180 0.0 0.0 0.00 0.00 0.00 83 1002.4
20260510053028 37 180 0.0 0.0 0.00 0.00 0.00 84 1002.4
20260510052825 37 180 0.0 0.0 0.00 0.00 0.00 85 1002.4
20260510052626 37 180 0.0 0.0 0.00 0.00 0.00 86 1002.4
20260510052453 36 180 0.0 0.0 0.00 0.00 0.00 86 1002.4
20260510052422 36 180 0.0 0.0 0.00 0.00 0.00 86 1002.4
20260510052223 37 180 0.0 0.0 0.00 0.00 0.00 86 1002.4
20260510052020 37 180 0.0 0.0 0.00 0.00 0.00 82 1002.4
20260510051820 37 180 0.0 0.0 0.00 0.00 0.00 84 1002.4
20260510051617 37 180 0.0 0.0 0.00 0.00 0.00 84 1002.4
20260510051418 37 180 0.0 0.0 0.00 0.00 0.00 83 1002.4
20260510051215 37 180 0.0 0.0 0.00 0.00 0.00 83 1002.4
20260510051015 37 180 0.0 0.0 0.00 0.00 0.00 85 1002.4
20260510050813 37 180 0.0 0.0 0.00 0.00 0.00 85 1002.3
20260510050613 37 180 0.0 0.0 0.00 0.00 0.00 84 1002.3
20260510050410 37 180 0.0 0.0 0.00 0.00 0.00 84 1002.3
20260510050210 37 180 0.0 0.0 0.00 0.00 0.00 83 1002.3
20260510050007 37 180 0.0 0.0 0.00 0.00 0.00 83 1002.3
20260510045807 37 180 0.0 0.0 0.00 0.00 0.00 82 1002.4
20260510045606 37 180 0.0 0.0 0.00 0.00 0.00 81 1002.4
20260510045405 37 180 0.0 0.0 0.00 0.00 0.00 82 1002.3
20260510045202 37 180 0.0 0.0 0.00 0.00 0.00 82 1002.3
20260510045003 37 180 0.0 0.0 0.00 0.00 0.00 83 1002.2
20260510044600 37 180 0.0 0.0 0.00 0.00 0.00 83 1002.3
20260510043955 37 180 0.0 0.0 0.00 0.00 0.00 83 1002.3
20260510043755 37 180 0.0 0.0 0.00 0.00 0.00 84 1002.3
20260510043354 37 180 0.0 0.0 0.00 0.00 0.00 83 1002.4
20260510043150 37 180 0.0 0.0 0.00 0.00 0.00 83 1002.4
20260510042950 37 180 0.0 0.0 0.00 0.00 0.00 85 1002.3
20260510042748 37 180 0.0 0.0 0.00 0.00 0.00 85 1002.3
20260510042548 37 180 0.0 0.0 0.00 0.00 0.00 85 1002.3
20260510042345 37 180 0.0 0.0 0.00 0.00 0.00 86 1002.3
20260510042145 37 180 0.0 0.0 0.00 0.00 0.00 87 1002.3
20260510041943 37 180 0.0 0.0 0.00 0.00 0.00 87 1002.4
20260510041743 37 180 0.0 0.0 0.00 0.00 0.00 86 1002.4
20260510041540 37 180 0.0 0.0 0.00 0.00 0.00 86 1002.4
20260510041340 37 180 0.0 0.0 0.00 0.00 0.00 86 1002.4
20260510041138 37 180 0.0 0.0 0.00 0.00 0.00 86 1002.4
20260510040943 37 180 0.0 0.0 0.00 0.00 0.00 86 1002.4
20260510040535 37 180 0.0 0.0 0.00 0.00 0.00 86 1002.4
20260510040333 37 180 0.0 0.0 0.00 0.00 0.00 86 1002.6
20260510040133 37 180 0.0 0.0 0.00 0.00 0.00 87 1002.6
20260510035931 37 180 0.0 0.0 0.00 0.00 0.00 88 1002.6
20260510035730 37 180 0.0 0.0 0.00 0.00 0.00 88 1002.6
20260510035528 37 180 0.0 0.0 0.00 0.00 0.00 89 1002.6
20260510035328 37 180 0.0 0.0 0.00 0.00 0.00 88 1002.6
20260510035125 37 180 0.0 0.0 0.00 0.00 0.00 88 1002.6
20260510034925 37 180 0.0 0.0 0.00 0.00 0.00 89 1002.6
20260510034723 37 180 0.0 0.0 0.00 0.00 0.00 89 1002.6
20260510034523 37 180 0.0 0.0 0.00 0.00 0.00 90 1002.6
20260510034321 37 180 0.0 0.0 0.00 0.00 0.00 88 1002.7
20260510034120 37 180 0.0 0.0 0.00 0.00 0.00 89 1002.7
20260510033918 37 180 0.0 0.0 0.00 0.00 0.00 89 1002.7
20260510033718 37 180 0.0 0.0 0.00 0.00 0.00 88 1002.8
20260510033515 37 180 0.0 0.0 0.00 0.00 0.00 88 1002.7
20260510033315 37 180 0.0 0.0 0.00 0.00 0.00 88 1002.7
20260510033113 37 180 0.0 0.0 0.00 0.00 0.00 89 1002.6
20260510032913 37 180 0.0 0.0 0.00 0.00 0.00 89 1002.6
20260510032711 37 180 0.0 0.0 0.00 0.00 0.00 89 1002.6
20260510032512 37 180 0.0 0.0 0.00 0.00 0.00 89 1002.6
20260510032310 37 180 0.0 0.0 0.00 0.00 0.00 90 1002.7
20260510032108 37 180 0.0 0.0 0.00 0.00 0.00 90 1002.7
20260510031905 37 180 0.0 0.0 0.00 0.00 0.00 90 1002.7
20260510031705 37 180 0.0 0.0 0.00 0.00 0.00 90 1002.7
20260510031307 37 180 0.0 0.0 0.00 0.00 0.00 90 1002.7
20260510031100 37 180 0.0 0.0 0.00 0.00 0.00 90 1002.7
20260510030902 37 180 0.0 0.0 0.00 0.00 0.00 90 1002.7
20260510030659 37 180 0.0 0.0 0.00 0.00 0.00 90 1002.7
20260510030458 37 180 0.0 0.0 0.00 0.00 0.00 90 1002.8
20260510030259 37 180 0.0 0.0 0.00 0.00 0.00 90 1002.7
20260510030055 37 180 0.0 0.0 0.00 0.00 0.00 90 1002.7
20260510025908 37 180 0.0 0.0 0.00 0.00 0.00 90 1002.7
20260510025653 38 180 0.0 0.0 0.00 0.00 0.00 90 1002.7
20260510025458 38 180 0.0 0.0 0.00 0.00 0.00 90 1002.8
20260510025250 38 180 0.0 0.0 0.00 0.00 0.00 90 1002.8
20260510025048 38 180 0.0 0.0 0.00 0.00 0.00 90 1002.8
20260510024925 37 180 0.0 0.0 0.00 0.00 0.00 90 1002.8
20260510024855 37 180 0.0 0.0 0.00 0.00 0.00 91 1002.8
20260510024851 37 180 0.0 0.0 0.00 0.00 0.00 90 1002.8
20260510024645 37 180 0.0 0.0 0.00 0.00 0.00 91 1002.8
20260510024445 38 180 0.0 0.0 0.00 0.00 0.00 93 1002.8
20260510024244 37 180 0.0 0.0 0.00 0.00 0.00 93 1002.8
20260510024043 37 180 0.0 0.0 0.00 0.00 0.00 93 1002.8
20260510023840 37 180 0.0 0.0 0.00 0.00 0.00 92 1002.9
20260510023640 37 180 0.0 0.0 0.00 0.00 0.00 92 1002.8
20260510023445 37 180 0.0 0.0 0.00 0.00 0.00 93 1002.8
20260510023238 37 180 0.0 0.0 0.00 0.00 0.00 92 1002.8
20260510023035 37 180 0.0 0.0 0.00 0.00 0.00 93 1002.8
20260510022835 37 180 0.0 0.0 0.00 0.00 0.00 93 1002.8
20260510022632 37 180 0.0 0.0 0.00 0.00 0.00 92 1002.7
20260510022433 37 180 0.0 0.0 0.00 0.00 0.00 93 1002.6
20260510022243 37 180 0.0 0.0 0.00 0.00 0.00 94 1002.4
20260510022030 37 180 0.0 0.0 0.00 0.00 0.00 94 1002.4
20260510021827 37 180 0.0 0.0 0.00 0.00 0.00 94 1002.6
20260510021628 37 180 0.0 0.0 0.00 0.00 0.00 94 1002.4
20260510021459 37 180 0.0 0.0 0.00 0.00 0.00 94 1002.4
20260510021426 37 180 0.0 0.0 0.00 0.00 0.00 94 1002.4
20260510021225 37 180 0.0 0.0 0.00 0.00 0.00 94 1002.4
20260510021022 37 180 0.0 0.0 0.00 0.00 0.00 94 1002.4
20260510020822 38 180 0.0 0.0 0.00 0.00 0.00 93 1002.6
20260510020620 38 180 0.0 0.0 0.00 0.00 0.00 93 1002.4
20260510020420 38 180 0.0 0.0 0.00 0.00 0.00 93 1002.6
20260510020220 38 180 0.0 0.0 0.00 0.00 0.00 92 1002.6
20260510020017 38 180 0.0 0.0 0.00 0.00 0.00 92 1002.6
20260510015818 38 180 0.0 0.0 0.00 0.00 0.00 92 1002.6
20260510015615 38 180 0.0 0.0 0.00 0.00 0.00 91 1002.6
20260510015412 38 180 0.0 0.0 0.00 0.00 0.00 91 1002.6
20260510015217 38 180 0.0 0.0 0.00 0.00 0.00 91 1002.6
20260510015010 38 180 0.0 0.0 0.00 0.00 0.00 91 1002.6
20260510014810 38 180 0.0 0.0 0.00 0.00 0.00 91 1002.7
20260510014607 38 180 0.0 0.0 0.00 0.00 0.00 92 1002.6
20260510014408 38 180 0.0 0.0 0.00 0.00 0.00 92 1002.4
20260510014206 38 180 0.0 0.0 0.00 0.00 0.00 93 1002.4
20260510014020 38 180 0.0 0.0 0.00 0.00 0.00 93 1002.6
20260510013602 38 180 0.0 0.0 0.00 0.00 0.00 93 1002.4
20260510013200 38 180 0.0 0.0 0.00 0.00 0.00 93 1002.6
20260510012957 38 180 0.0 0.0 0.00 0.00 0.00 93 1002.6
20260510012758 38 180 0.0 0.0 0.00 0.00 0.00 93 1002.6
20260510012555 38 180 0.0 0.0 0.00 0.00 0.00 92 1002.6
20260510012355 38 180 0.0 0.0 0.00 0.00 0.00 93 1002.4
20260510012152 38 180 0.0 0.0 0.00 0.00 0.00 93 1002.4
20260510011814 38 180 0.0 0.0 0.00 0.00 0.00 93 1002.7
20260510011750 38 180 0.0 0.0 0.00 0.00 0.00 92 1002.6
20260510011550 38 180 0.0 0.0 0.00 0.00 0.00 93 1002.7
20260510011347 38 180 0.0 0.0 0.00 0.00 0.00 93 1002.7
20260510011148 38 180 0.0 0.0 0.00 0.00 0.00 93 1002.7
20260510010945 38 180 0.0 0.0 0.00 0.00 0.00 93 1002.8
20260510010745 38 180 0.0 0.0 0.00 0.00 0.00 93 1002.8
20260510010542 38 180 0.0 0.0 0.00 0.00 0.00 93 1002.9
20260510010342 38 180 0.0 0.0 0.00 0.00 0.00 93 1002.9
20260510010140 38 180 0.0 0.0 0.00 0.00 0.00 93 1002.8
20260510005940 38 180 0.0 0.0 0.00 0.00 0.00 93 1002.9
20260510005737 38 180 0.0 0.0 0.00 0.00 0.00 94 1002.9
20260510005538 38 180 0.0 0.0 0.00 0.00 0.00 94 1002.9
20260510005335 38 180 0.0 0.0 0.00 0.00 0.00 94 1002.9
20260510005135 38 180 0.0 0.0 0.00 0.00 0.00 94 1002.9
20260510005017 38 180 0.0 0.0 0.00 0.00 0.00 95 1002.9
20260510004934 38 180 0.0 0.0 0.00 0.00 0.00 95 1002.9
20260510004733 38 180 0.0 0.0 0.00 0.00 0.00 95 1002.9
20260510004530 38 180 0.0 0.0 0.00 0.00 0.00 95 1002.9
20260510004330 38 180 0.0 0.0 0.00 0.00 0.00 95 1002.9
20260510004127 38 180 0.0 0.0 0.00 0.00 0.00 95 1002.9
20260510003928 38 180 0.0 0.0 0.00 0.00 0.00 96 1002.9
20260510003725 38 180 0.0 0.0 0.00 0.00 0.00 96 1002.9
20260510003526 38 180 0.0 0.0 0.00 0.00 0.00 96 1002.9
20260510003323 38 180 0.0 0.0 0.00 0.00 0.00 95 1002.9
20260510003123 38 180 0.0 0.0 0.00 0.00 0.00 95 1002.9
20260510002954 38 180 0.0 0.0 0.00 0.00 0.00 95 1002.9
20260510002920 38 180 0.0 0.0 0.00 0.00 0.00 95 1002.9
20260510002720 38 180 0.0 0.0 0.00 0.00 0.00 95 1002.8
20260510002517 38 180 0.0 0.0 0.00 0.00 0.00 95 1002.8
20260510002318 38 180 0.0 0.0 0.00 0.00 0.00 95 1002.8
20260510002120 38 180 0.0 0.0 0.00 0.00 0.00 95 1002.9
20260510001915 38 180 0.0 0.0 0.00 0.00 0.00 95 1002.8
20260510001715 38 180 0.0 0.0 0.00 0.00 0.00 95 1003.1
20260510001554 38 180 0.0 0.0 0.00 0.00 0.00 95 1002.9
20260510001513 38 180 0.0 0.0 0.00 0.00 0.00 95 1002.9
20260510001310 38 180 0.0 0.0 0.00 0.00 0.00 95 1002.9
20260510001110 38 180 0.0 0.0 0.00 0.00 0.00 95 1003.1
20260510000907 38 180 0.0 0.0 0.00 0.00 0.00 94 1002.9
20260510000708 38 180 0.0 0.0 0.00 0.00 0.00 94 1002.9
20260510000505 39 180 0.0 0.0 0.00 0.00 0.00 94 1003.1
20260510000305 38 180 0.0 0.0 0.00 0.00 0.00 94 1002.8
20260510000105 39 180 0.0 0.0 0.00 0.00 0.00 94 1002.9
20260509235903 39 180 0.0 0.0 0.00 0.00 0.00 94 1002.9
20260509235700 38 180 0.0 0.0 0.00 0.00 0.00 94 1002.9
20260509235533 38 180 0.0 0.0 0.00 0.00 0.00 94 1002.9
20260509235500 38 180 0.0 0.0 0.00 0.00 0.00 94 1002.9
20260509235258 38 180 0.0 0.0 0.00 0.00 0.00 94 1002.9
20260509234855 38 180 0.0 0.0 0.00 0.00 0.00 95 1002.9
20260509234657 38 180 0.0 0.0 0.00 0.00 0.00 95 1003.1
20260509234530 38 180 0.0 0.0 0.00 0.00 0.00 95 1003.1
20260509234453 38 180 0.0 0.0 0.00 0.00 0.00 95 1003.1
20260509234305 39 180 0.0 0.0 0.00 0.00 0.00 95 1003.1
20260509234050 38 180 0.0 0.0 0.00 0.00 0.00 95 1003.1
20260509233850 38 180 0.0 0.0 0.00 0.00 0.00 95 1003.1
20260509233648 39 180 0.0 0.0 0.00 0.00 0.00 95 1003.2
20260509233448 38 180 0.0 0.0 0.00 0.00 0.00 95 1003.1
20260509233245 38 180 0.0 0.0 0.00 0.00 0.00 95 1003.1
20260509233045 38 180 0.0 0.0 0.00 0.00 0.00 96 1003.2
20260509232643 38 180 0.0 0.0 0.00 0.00 0.00 95 1003.2
20260509232526 38 180 0.0 0.0 0.00 0.00 0.00 95 1003.2
20260509232440 38 180 0.0 0.0 0.00 0.00 0.00 95 1003.2
20260509232240 38 180 0.0 0.0 0.00 0.00 0.00 95 1003.2
20260509232038 38 180 0.0 0.0 0.00 0.00 0.00 95 1003.2
20260509231838 38 180 0.0 0.0 0.00 0.00 0.00 95 1003.2
20260509231635 38 180 0.0 0.0 0.00 0.00 0.00 95 1003.3
20260509231435 38 180 0.0 0.0 0.00 0.00 0.00 95 1003.3
20260509231233 38 180 0.0 0.0 0.00 0.00 0.00 95 1003.3
20260509231033 38 180 0.0 0.0 0.00 0.00 0.00 94 1003.2
20260509230630 38 180 0.0 0.0 0.00 0.00 0.00 93 1003.3
20260509230229 39 180 0.0 0.0 0.00 0.00 0.00 93 1003.4
20260509230118 39 180 0.0 0.0 0.00 0.00 0.00 87 1003.4
20260509230025 39 180 0.0 0.0 0.00 0.00 0.00 87 1003.4
20260509225825 39 180 0.0 0.0 0.00 0.00 0.00 92 1003.6
20260509225622 39 180 0.0 0.0 0.00 0.00 0.00 92 1003.6
20260509225428 39 180 0.0 0.0 0.00 0.00 0.00 92 1003.6
20260509225220 39 180 0.0 0.0 0.00 0.00 0.00 92 1003.6
20260509225055 39 180 0.0 0.0 0.00 0.00 0.00 92 1003.6
20260509225020 39 180 0.0 0.0 0.00 0.00 0.00 92 1003.6
20260509224818 39 180 0.0 0.0 0.00 0.00 0.00 93 1003.6
20260509224617 39 180 0.0 0.0 0.00 0.00 0.00 92 1003.6
20260509224215 39 180 0.0 0.0 0.00 0.00 0.00 92 1003.6
20260509224012 39 180 0.0 0.0 0.00 0.00 0.00 92 1003.6
20260509223812 39 180 0.0 0.0 0.00 0.00 0.00 92 1003.6
20260509223609 39 180 0.0 0.0 0.00 0.00 0.00 91 1003.4
20260509223410 39 180 0.0 0.0 0.00 0.00 0.00 91 1003.6
20260509223207 39 180 0.0 0.0 0.00 0.00 0.00 91 1003.6
20260509223007 39 180 0.0 0.0 0.00 0.00 0.00 91 1003.4
20260509222804 39 180 0.0 0.0 0.00 0.00 0.00 92 1003.6
20260509222605 39 180 0.0 0.0 0.00 0.00 0.00 92 1003.6
20260509222403 39 180 0.0 0.0 0.00 0.00 0.00 92 1003.6
20260509222239 39 180 0.0 0.0 0.00 0.00 0.00 91 1003.4
20260509222202 39 180 0.0 0.0 0.00 0.00 0.00 91 1003.4
20260509222000 39 180 0.0 0.0 0.00 0.00 0.00 92 1003.4
20260509221800 39 180 0.0 0.0 0.00 0.00 0.00 92 1003.4
20260509221400 39 180 0.0 0.0 0.00 0.00 0.00 92 1003.6
20260509221158 39 180 0.0 0.0 0.00 0.00 0.00 92 1003.4
20260509220956 39 180 0.0 0.0 0.00 0.00 0.00 92 1003.4
20260509220753 39 180 0.0 0.0 0.00 0.00 0.00 92 1003.4
20260509220555 39 180 0.0 0.0 0.00 0.00 0.00 92 1003.3
20260509220350 39 180 0.0 0.0 0.00 0.00 0.00 91 1003.4
20260509220157 39 180 0.0 0.0 0.00 0.00 0.00 91 1003.4
20260509215752 40 180 0.0 0.0 0.00 0.00 0.00 91 1003.4
20260509215547 39 180 0.0 0.0 0.00 0.00 0.00 91 1003.3
20260509215345 40 180 0.0 0.0 0.00 0.00 0.00 91 1003.4
20260509215144 40 180 0.0 0.0 0.00 0.00 0.00 91 1003.3
20260509214945 39 180 0.0 0.0 0.00 0.00 0.00 92 1003.4
20260509214740 40 180 0.0 0.0 0.00 0.00 0.00 92 1003.4
20260509214542 39 180 0.0 0.0 0.00 0.00 0.00 91 1003.4
20260509214337 40 180 0.0 0.0 0.00 0.00 0.00 91 1003.4
20260509214139 40 180 0.0 0.0 0.00 0.00 0.00 90 1003.4
20260509213938 40 180 0.0 0.0 0.00 0.00 0.00 90 1003.6
20260509213851 39 180 0.0 0.0 0.00 0.00 0.00 90 1003.6
20260509213735 39 180 0.0 0.0 0.00 0.00 0.00 90 1003.6
20260509213639 40 180 0.0 0.0 0.00 0.00 0.00 90 1003.4
20260509213537 40 180 0.0 0.0 0.00 0.00 0.00 90 1003.4
20260509213333 39 180 0.0 0.0 0.00 0.00 0.00 91 1003.6
20260509213130 40 180 0.0 0.0 0.00 0.00 0.00 91 1003.4
20260509212930 40 180 0.0 0.0 0.00 0.00 0.00 92 1003.4
20260509212728 40 180 0.0 0.0 0.00 0.00 0.00 91 1003.4
20260509212528 40 180 0.0 0.0 0.00 0.00 0.00 92 1003.4
20260509212326 40 180 0.0 0.0 0.00 0.00 0.00 92 1003.4
20260509212129 39 180 0.0 0.0 0.00 0.00 0.00 92 1003.4
20260509211923 39 180 0.0 0.0 0.00 0.00 0.00 93 1003.3
20260509211723 39 180 0.0 0.0 0.00 0.00 0.00 93 1003.4
20260509211521 39 180 0.0 0.0 0.00 0.00 0.00 93 1003.3
20260509211320 40 180 0.0 0.0 0.00 0.00 0.00 92 1003.3
20260509211118 40 180 0.0 0.0 0.00 0.00 0.00 91 1003.3
20260509210725 40 180 0.0 0.0 0.00 0.00 0.00 91 1003.3
20260509210515 39 180 0.0 0.0 0.00 0.00 0.00 92 1003.3
20260509210313 39 180 0.0 0.0 0.00 0.00 0.00 91 1003.4
20260509210113 39 180 0.0 0.0 0.00 0.00 0.00 91 1003.3
20260509205910 39 180 0.0 0.0 0.00 0.00 0.00 90 1003.4
20260509205710 39 180 0.0 0.0 0.00 0.00 0.00 90 1003.4
20260509205557 39 180 0.0 0.0 0.00 0.00 0.00 90 1003.3
20260509205507 39 180 0.0 0.0 0.00 0.00 0.00 90 1003.3
20260509205308 39 180 0.0 0.0 0.00 0.00 0.00 90 1003.3
20260509205106 39 180 0.0 0.0 0.00 0.00 0.00 90 1003.3
20260509204910 40 180 0.0 0.0 0.00 0.00 0.00 89 1003.3
20260509204703 39 180 0.0 0.0 0.00 0.00 0.00 89 1003.4
20260509204503 40 180 0.0 0.0 0.00 0.00 0.00 89 1003.3
20260509204300 39 180 0.0 0.0 0.00 0.00 0.00 88 1003.2
20260509204102 39 180 0.0 0.0 0.00 0.00 0.00 88 1003.3
20260509203903 39 180 0.0 0.0 0.00 0.00 0.00 89 1003.2
20260509203658 39 180 0.0 0.0 0.00 0.00 0.00 89 1003.2
20260509203455 39 180 0.0 0.0 0.00 0.00 0.00 89 1003.2
20260509203256 39 180 0.0 0.0 0.00 0.00 0.00 89 1003.2
20260509203055 39 180 0.0 0.0 0.00 0.00 0.00 89 1003.1
20260509202853 39 180 0.0 0.0 0.00 0.00 0.00 90 1003.1
20260509202541 39 180 0.0 0.0 0.00 0.00 0.00 91 1002.9
20260509202450 39 180 0.0 0.0 0.00 0.00 0.00 91 1002.9
20260509202300 38 180 0.0 0.0 0.00 0.00 0.00 93 1002.9
20260509202052 38 180 0.0 0.0 0.00 0.00 0.00 93 1002.9
20260509201848 38 180 0.0 0.0 0.00 0.00 0.00 94 1002.9
20260509201645 38 180 0.0 0.0 0.00 0.00 0.00 94 1002.9
20260509201443 38 180 0.0 0.0 0.00 0.00 0.00 94 1002.9
20260509201243 38 180 0.0 0.0 0.00 0.00 0.00 94 1002.8
20260509201040 38 180 0.0 0.0 0.00 0.00 0.00 93 1002.8
20260509200840 38 180 0.0 0.0 0.00 0.00 0.00 93 1002.8
20260509200638 38 180 0.0 0.0 0.00 0.00 0.00 93 1002.9
20260509200438 38 180 0.0 0.0 0.00 0.00 0.00 92 1002.8
20260509200237 38 180 0.0 0.0 0.00 0.00 0.00 92 1002.8
20260509200035 38 180 0.0 0.0 0.00 0.00 0.00 92 1002.8
20260509195634 38 180 0.0 0.0 0.00 0.00 0.00 92 1002.8
20260509195430 38 180 0.0 0.0 0.00 0.00 0.00 93 1002.8
20260509195230 38 180 0.0 0.0 0.00 0.00 0.00 93 1002.7
20260509195100 38 180 0.0 0.0 0.00 0.00 0.00 93 1002.7
20260509195028 38 180 0.0 0.0 0.00 0.00 0.00 93 1002.7
20260509194830 38 180 0.0 0.0 0.00 0.00 0.00 92 1002.8
20260509194625 38 180 0.0 0.0 0.00 0.00 0.00 92 1002.7
20260509194430 38 180 0.0 0.0 0.00 0.00 0.00 92 1002.7
20260509194226 38 180 0.0 0.0 0.00 0.00 0.00 92 1002.7
20260509194026 38 180 0.0 0.0 0.00 0.00 0.00 91 1002.7
20260509193823 38 180 0.0 0.0 0.00 0.00 0.00 91 1002.7
20260509193622 38 180 0.0 0.0 0.00 0.00 0.00 91 1002.7
20260509193420 38 180 0.0 0.0 0.00 0.00 0.00 91 1002.7
20260509193218 38 180 0.0 0.0 0.00 0.00 0.00 91 1002.7
20260509193056 38 180 0.0 0.0 0.00 0.00 0.00 91 1002.7
20260509193015 38 180 0.0 0.0 0.00 0.00 0.00 91 1002.7
20260509192815 38 180 0.0 0.0 0.00 0.00 0.00 92 1002.7
20260509192613 38 180 0.0 0.0 0.00 0.00 0.00 91 1002.7
20260509192418 38 180 0.0 0.0 0.00 0.00 0.00 90 1002.7
20260509192212 39 180 0.0 0.0 0.00 0.00 0.00 90 1002.7
20260509192010 38 180 0.0 0.0 0.00 0.00 0.00 90 1002.8
20260509191808 38 180 0.0 0.0 0.00 0.00 0.00 90 1002.7
20260509191608 38 180 0.0 0.0 0.00 0.00 0.00 90 1002.7
20260509191407 38 180 0.0 0.0 0.00 0.00 0.00 91 1002.7
20260509191205 38 180 0.0 0.0 0.00 0.00 0.00 90 1002.6
20260509191002 38 180 0.0 0.0 0.00 0.00 0.00 90 1002.6
20260509190803 38 180 0.0 0.0 0.00 0.00 0.00 91 1002.6
20260509190602 38 180 0.0 0.0 0.00 0.00 0.00 91 1002.6
20260509190407 38 180 0.0 0.0 0.00 0.00 0.00 90 1002.4
20260509190200 39 180 0.0 0.0 0.00 0.00 0.00 90 1002.4
20260509185958 38 180 0.0 0.0 0.00 0.00 0.00 92 1002.4
20260509185757 38 180 0.0 0.0 0.00 0.00 0.00 92 1002.4
20260509185555 38 180 0.0 0.0 0.00 0.00 0.00 92 1002.4
20260509185355 39 180 0.0 0.0 0.00 0.00 0.00 91 1002.4
20260509185225 39 180 0.0 0.0 0.00 0.00 0.00 92 1002.3
20260509185154 39 180 0.0 0.0 0.00 0.00 0.00 92 1002.3
20260509184950 39 180 0.0 0.0 0.00 0.00 0.00 92 1002.3
20260509184750 39 180 0.0 0.0 0.00 0.00 0.00 92 1002.3
20260509184547 39 180 0.0 0.0 0.00 0.00 0.00 92 1002.3
20260509184348 39 180 0.0 0.0 0.00 0.00 0.00 93 1002.3
20260509184016 39 180 0.0 0.0 0.00 0.00 0.00 93 1002.2
20260509183945 39 180 0.0 0.0 0.00 0.00 0.00 93 1002.2
20260509183742 39 180 0.0 0.0 0.00 0.00 0.00 93 1002.0
20260509183542 39 180 0.0 0.0 0.00 0.00 0.00 92 1002.0
20260509183340 39 180 0.0 0.0 0.00 0.00 0.00 88 1002.0
20260509183140 39 180 0.0 0.0 0.00 0.00 0.00 93 1002.0
20260509182940 39 180 0.0 0.0 0.00 0.00 0.00 93 1002.0
20260509182740 39 180 0.0 0.0 0.00 0.00 0.00 93 1002.0
20260509182534 39 180 0.0 0.0 0.00 0.00 0.00 93 1002.0
20260509182337 39 180 0.0 0.0 0.00 0.00 0.00 92 1002.2
20260509182132 39 180 0.0 0.0 0.00 0.00 0.00 92 1002.0
20260509181935 39 180 0.0 0.0 0.00 0.00 0.00 92 1002.2
20260509181530 39 180 0.0 0.0 0.00 0.00 0.00 92 1002.2
20260509180924 39 180 0.0 0.0 0.00 0.00 0.00 91 1002.2
20260509180725 40 180 0.0 0.0 0.00 0.00 0.00 91 1002.2
20260509180524 40 180 0.0 0.0 0.00 0.00 0.00 91 1002.2
20260509180325 40 180 0.0 0.0 0.00 0.00 0.00 90 1002.3
20260509180123 40 180 0.0 0.0 0.00 0.00 0.00 91 1002.3
20260509175920 40 180 0.0 0.0 0.00 0.00 0.00 90 1002.3
20260509175519 40 180 0.0 0.0 0.00 0.00 0.00 89 1002.4
20260509175314 40 180 0.0 0.0 0.00 0.00 0.00 89 1002.4
20260509175114 40 180 0.0 0.0 0.00 0.00 0.00 88 1002.4
20260509174912 40 180 0.0 0.0 0.00 0.00 0.00 88 1002.6
20260509174751 41 180 0.0 0.0 0.00 0.00 0.00 88 1002.7
20260509174712 40 180 0.0 0.0 0.00 0.00 0.00 88 1002.6
20260509174512 41 180 0.0 0.0 0.00 0.00 0.00 87 1002.7
20260509174310 40 180 0.0 0.0 0.00 0.00 0.00 88 1002.7
20260509174107 41 180 0.0 0.0 0.00 0.00 0.00 88 1002.7
20260509173918 41 180 0.0 0.0 0.00 0.00 0.00 88 1002.7
20260509173711 41 180 0.0 0.0 0.00 0.00 0.00 87 1002.8
20260509173706 41 180 0.0 0.0 0.00 0.00 0.00 88 1002.8
20260509173504 41 180 0.0 0.0 0.00 0.00 0.00 87 1002.8
20260509173302 41 180 0.0 0.0 0.00 0.00 0.00 88 1002.8
20260509173104 41 180 0.0 0.0 0.00 0.00 0.00 87 1002.8
20260509172906 41 180 0.0 0.0 0.00 0.00 0.00 86 1002.8
20260509172839 42 180 0.0 0.0 0.00 0.00 0.00 85 1002.7
20260509172659 41 180 0.0 0.0 0.00 0.00 0.00 85 1002.8
20260509172457 41 180 0.0 0.0 0.00 0.00 0.00 86 1002.7
20260509172257 41 180 0.0 0.0 0.00 0.00 0.00 86 1002.7
20260509172054 42 180 0.0 0.0 0.00 0.00 0.00 85 1002.7
20260509171856 42 180 0.0 0.0 0.00 0.00 0.00 84 1002.7
20260509171455 42 180 0.0 0.0 0.00 0.00 0.00 82 1002.7
20260509171258 42 180 0.0 0.0 0.00 0.00 0.00 81 1002.7
20260509171049 43 180 0.0 0.0 0.00 0.00 0.00 81 1002.6
20260509170848 43 180 0.0 0.0 0.00 0.00 0.00 80 1002.6
20260509170647 43 180 0.0 0.0 0.00 0.00 0.00 80 1002.6
20260509170444 43 180 0.0 0.0 0.00 0.00 0.00 80 1002.4
20260509170246 43 180 0.0 0.0 0.00 0.00 0.00 80 1002.6
20260509170042 43 180 0.0 0.0 0.00 0.00 0.00 79 1002.6
20260509165639 43 180 0.0 0.0 0.00 0.00 0.00 78 1002.4
20260509165439 43 180 0.0 0.0 0.00 0.00 0.00 77 1002.6
20260509165239 43 180 0.0 0.0 0.00 0.00 0.00 77 1002.6
20260509165037 43 180 0.0 0.0 0.00 0.00 0.00 77 1002.6
20260509165030 44 180 0.0 0.0 0.00 0.00 0.00 74 1002.4
20260509164834 43 180 0.0 0.0 0.00 0.00 0.00 76 1002.4
20260509164636 43 180 0.0 0.0 0.00 0.00 0.00 77 1002.6
20260509164432 43 180 0.0 0.0 0.00 0.00 0.00 77 1002.3
20260509164232 43 180 0.0 0.0 0.00 0.00 0.00 76 1002.4
20260509164029 44 180 0.0 0.0 0.00 0.00 0.00 74 1002.6
20260509163831 44 180 0.0 0.0 0.00 0.00 0.00 74 1002.4
20260509163626 44 180 0.0 0.0 0.00 0.00 0.00 74 1002.3
20260509163536 44 180 0.0 0.0 0.00 0.00 0.00 75 1002.4
20260509163431 44 180 0.0 0.0 0.00 0.00 0.00 75 1002.4
20260509163226 44 180 0.0 0.0 0.00 0.00 0.00 74 1002.4
20260509163024 44 180 0.0 0.0 0.00 0.00 0.00 72 1002.6
20260509162824 44 180 0.0 0.0 0.00 0.00 0.00 73 1002.6
20260509162624 44 180 0.0 0.0 0.00 0.00 0.00 73 1002.4
20260509162421 44 180 0.0 0.0 0.00 0.00 0.00 72 1002.6
20260509162219 44 180 0.0 0.0 0.00 0.00 0.00 71 1002.6
20260509162017 44 180 0.0 0.0 0.00 0.00 0.00 71 1002.6
20260509161817 44 180 0.0 0.0 0.00 0.00 0.00 70 1002.6
20260509161616 44 180 0.0 0.0 0.00 0.00 0.00 71 1002.4
20260509161417 44 180 0.0 0.0 0.00 0.00 0.00 73 1002.6
20260509161213 44 180 0.0 0.0 0.00 0.00 0.00 72 1002.6
20260509161012 44 180 0.0 0.0 0.00 0.00 0.00 70 1002.6
20260509160809 44 180 0.0 0.0 0.00 0.00 0.00 70 1002.6
20260509160611 44 180 0.0 0.0 0.00 0.00 0.00 71 1002.4
20260509160409 44 180 0.0 0.0 0.00 0.00 0.00 73 1002.4
20260509160211 44 180 0.0 0.0 0.00 0.00 0.00 75 1002.4
20260509160004 44 180 0.0 0.0 0.00 0.00 0.00 75 1002.3
20260509155806 44 180 0.0 0.0 0.00 0.00 0.00 74 1002.3
20260509155401 44 180 0.0 0.0 0.00 0.00 0.00 77 1002.3
20260509155201 44 180 0.0 0.0 0.00 0.00 0.00 77 1002.3
20260509154959 44 180 0.0 0.0 0.00 0.00 0.00 78 1002.2
20260509154756 44 180 0.0 0.0 0.00 0.00 0.00 78 1002.2
20260509154556 44 180 0.0 0.0 0.00 0.00 0.00 78 1002.3
20260509154405 44 180 0.0 0.0 0.00 0.00 0.00 78 1002.3
20260509154155 44 180 0.0 0.0 0.00 0.00 0.00 79 1002.3
20260509154041 44 180 0.0 0.0 0.00 0.00 0.00 78 1002.3
20260509153952 44 180 0.0 0.0 0.00 0.00 0.00 78 1002.3
20260509153752 44 180 0.0 0.0 0.00 0.00 0.00 79 1002.2
20260509153549 44 180 0.0 0.0 0.00 0.00 0.00 79 1002.3
20260509153401 44 180 0.0 0.0 0.00 0.00 0.00 78 1002.3
20260509153146 44 180 0.0 0.0 0.00 0.00 0.00 78 1002.3
20260509152743 44 180 0.0 0.0 0.00 0.00 0.00 76 1002.4
20260509152544 44 180 0.0 0.0 0.00 0.00 0.00 77 1002.4
20260509152341 44 180 0.0 0.0 0.00 0.00 0.00 79 1002.4
20260509152141 44 180 0.0 0.0 0.00 0.00 0.00 78 1002.4
20260509151942 44 180 0.0 0.0 0.00 0.00 0.00 78 1002.4
20260509151739 44 180 0.0 0.0 0.00 0.00 0.00 78 1002.4
20260509151538 44 180 0.0 0.0 0.00 0.00 0.00 77 1002.4
20260509151336 45 180 0.0 0.0 0.00 0.00 0.00 76 1002.6
20260509151134 45 180 0.0 0.0 0.00 0.00 0.00 76 1002.6
20260509150934 45 180 0.0 0.0 0.00 0.00 0.00 76 1002.6
20260509150733 45 180 0.0 0.0 0.00 0.00 0.00 76 1002.6
20260509150534 45 180 0.0 0.0 0.00 0.00 0.00 76 1002.6
20260509150329 45 180 0.0 0.0 0.00 0.00 0.00 77 1002.6
20260509150129 45 180 0.0 0.0 0.00 0.00 0.00 77 1002.6
20260509145926 45 180 0.0 0.0 0.00 0.00 0.00 75 1002.7
20260509145726 45 180 0.0 0.0 0.00 0.00 0.00 75 1002.8
20260509145324 45 180 0.0 0.0 0.00 0.00 0.00 75 1002.8
20260509145126 45 180 0.0 0.0 0.00 0.00 0.00 75 1002.8
20260509144931 45 180 0.0 0.0 0.00 0.00 0.00 75 1002.8
20260509144555 45 180 0.0 0.0 0.00 0.00 0.00 74 1002.8
20260509144521 45 180 0.0 0.0 0.00 0.00 0.00 74 1002.8
20260509144123 45 180 0.0 0.0 0.00 0.00 0.00 74 1002.9
20260509143914 45 180 0.0 0.0 0.00 0.00 0.00 75 1002.9
20260509143722 45 180 0.0 0.0 0.00 0.00 0.00 75 1002.9
20260509143513 45 180 0.0 0.0 0.00 0.00 0.00 74 1002.9
20260509143120 45 180 0.0 0.0 0.00 0.00 0.00 73 1003.1
20260509142911 46 180 0.0 0.0 0.00 0.00 0.00 74 1003.1
20260509142708 46 180 0.0 0.0 0.00 0.00 0.00 74 1003.1
20260509142542 46 180 0.0 0.0 0.00 0.00 0.00 74 1003.1
20260509142509 46 180 0.0 0.0 0.00 0.00 0.00 74 1003.1
20260509142328 46 180 0.0 0.0 0.00 0.00 0.00 71 1003.2
20260509142311 46 180 0.0 0.0 0.00 0.00 0.00 73 1003.2
20260509142106 46 180 0.0 0.0 0.00 0.00 0.00 71 1003.2
20260509141905 46 180 0.0 0.0 0.00 0.00 0.00 64 1003.2
20260509141706 46 180 0.0 0.0 0.00 0.00 0.00 70 1003.2
20260509141303 46 180 0.0 0.0 0.00 0.00 0.00 68 1003.2
20260509140701 46 180 0.0 0.0 0.00 0.00 0.00 66 1003.4
20260509140456 46 180 0.0 0.0 0.00 0.00 0.00 67 1003.4
20260509140256 46 180 0.0 0.0 0.00 0.00 0.00 66 1003.4
20260509140053 46 180 0.0 0.0 0.00 0.00 0.00 67 1003.4
20260509135652 47 180 0.0 0.0 0.00 0.00 0.00 67 1003.6
20260509135447 47 180 0.0 0.0 0.00 0.00 0.00 66 1003.7
20260509135256 47 180 0.0 0.0 0.00 0.00 0.00 66 1003.6
20260509135049 47 180 0.0 0.0 0.00 0.00 0.00 66 1003.7
20260509134649 47 180 0.0 0.0 0.00 0.00 0.00 64 1003.6
20260509134240 47 180 0.0 0.0 0.00 0.00 0.00 64 1003.7
20260509134041 47 180 0.0 0.0 0.00 0.00 0.00 64 1003.6
20260509133839 47 180 0.0 0.0 0.00 0.00 0.00 63 1003.6
20260509133638 47 180 0.0 0.0 0.00 0.00 0.00 64 1003.6
20260509133509 47 180 0.0 0.0 0.00 0.00 0.00 65 1003.4
20260509133435 47 180 0.0 0.0 0.00 0.00 0.00 65 1003.4
20260509133235 47 180 0.0 0.0 0.00 0.00 0.00 65 1003.6
20260509133032 47 180 0.0 0.0 0.00 0.00 0.00 65 1003.6
20260509132834 47 180 0.0 0.0 0.00 0.00 0.00 65 1003.7
20260509132630 47 180 0.0 0.0 0.00 0.00 0.00 65 1003.6
20260509132431 47 180 0.0 0.0 0.00 0.00 0.00 66 1003.7
20260509132228 47 180 0.0 0.0 0.00 0.00 0.00 66 1003.7
20260509132027 47 180 0.0 0.0 0.00 0.00 0.00 66 1003.6
20260509131825 47 180 0.0 0.0 0.00 0.00 0.00 67 1003.4
20260509131713 47 180 0.0 0.0 0.00 0.00 0.00 68 1003.6
20260509131626 47 180 0.0 0.0 0.00 0.00 0.00 68 1003.6
20260509131426 47 180 0.0 0.0 0.00 0.00 0.00 68 1003.6
20260509131222 46 180 0.0 0.0 0.00 0.00 0.00 69 1003.7
20260509131020 46 180 0.0 0.0 0.00 0.00 0.00 69 1003.7
20260509130820 46 180 0.0 0.0 0.00 0.00 0.00 68 1003.7
20260509130618 46 180 0.0 0.0 0.00 0.00 0.00 68 1003.8
20260509130418 46 180 0.0 0.0 0.00 0.00 0.00 68 1003.8
20260509130014 46 180 0.0 0.0 0.00 0.00 0.00 69 1003.7
20260509125613 46 180 0.0 0.0 0.00 0.00 0.00 69 1003.7
20260509125410 46 180 0.0 0.0 0.00 0.00 0.00 68 1003.7
20260509125214 46 180 0.0 0.0 0.00 0.00 0.00 69 1003.7
20260509125008 46 180 0.0 0.0 0.00 0.00 0.00 69 1003.8
20260509124810 46 180 0.0 0.0 0.00 0.00 0.00 68 1003.7
20260509124605 46 180 0.0 0.0 0.00 0.00 0.00 69 1003.8
20260509124404 46 180 0.0 0.0 0.00 0.00 0.00 69 1003.8
20260509124353 47 180 0.0 0.0 0.00 0.00 0.00 69 1004.0
20260509124204 46 180 0.0 0.0 0.00 0.00 0.00 69 1003.8
20260509124002 47 180 0.0 0.0 0.00 0.00 0.00 69 1004.0
20260509123604 47 180 0.0 0.0 0.00 0.00 0.00 69 1004.0
20260509123357 46 180 0.0 0.0 0.00 0.00 0.00 68 1004.1
20260509122957 47 180 0.0 0.0 0.00 0.00 0.00 69 1004.1
20260509122756 47 180 0.0 0.0 0.00 0.00 0.00 69 1004.1
20260509122551 47 180 0.0 0.0 0.00 0.00 0.00 68 1004.2
20260509122352 47 180 0.0 0.0 0.00 0.00 0.00 67 1004.1
20260509122152 47 180 0.0 0.0 0.00 0.00 0.00 66 1004.0
20260509121951 47 180 0.0 0.0 0.00 0.00 0.00 65 1004.1
20260509121145 47 180 0.0 0.0 0.00 0.00 0.00 64 1004.2
20260509120946 47 180 0.0 0.0 0.00 0.00 0.00 63 1004.2
20260509120742 47 180 0.0 0.0 0.00 0.00 0.00 65 1004.1
20260509120539 47 180 0.0 0.0 0.00 0.00 0.00 64 1004.1
20260509120139 47 180 0.0 0.0 0.00 0.00 0.00 66 1004.0
20260509115937 47 180 0.0 0.0 0.00 0.00 0.00 66 1004.1
20260509115733 47 180 0.0 0.0 0.00 0.00 0.00 66 1004.1
20260509115534 47 180 0.0 0.0 0.00 0.00 0.00 66 1004.0
20260509115331 48 180 0.0 0.0 0.00 0.00 0.00 66 1004.0
20260509115231 48 180 0.0 0.0 0.00 0.00 0.00 66 1004.0
20260509115132 48 180 0.0 0.0 0.00 0.00 0.00 66 1004.0
20260509114929 48 180 0.0 0.0 0.00 0.00 0.00 66 1004.0
20260509114526 47 180 0.0 0.0 0.00 0.00 0.00 66 1003.8
20260509114327 47 180 0.0 0.0 0.00 0.00 0.00 67 1004.0
20260509113721 48 180 0.0 0.0 0.00 0.00 0.00 67 1004.0
20260509113520 47 180 0.0 0.0 0.00 0.00 0.00 68 1004.0
20260509113319 47 180 0.0 0.0 0.00 0.00 0.00 67 1004.0
20260509112917 47 180 0.0 0.0 0.00 0.00 0.00 67 1004.0
20260509112514 47 180 0.0 0.0 0.00 0.00 0.00 67 1004.2
20260509112314 48 180 0.0 0.0 0.00 0.00 0.00 67 1004.1
20260509112113 47 180 0.0 0.0 0.00 0.00 0.00 67 1004.3
20260509111909 48 180 0.0 0.0 0.00 0.00 0.00 66 1004.3
20260509111708 47 180 0.0 0.0 0.00 0.00 0.00 67 1004.3
20260509111610 47 180 0.0 0.0 0.00 0.00 0.00 62 1004.5
20260509111508 47 180 0.0 0.0 0.00 0.00 0.00 65 1004.3
20260509111307 47 180 0.0 0.0 0.00 0.00 0.00 66 1004.3
20260509111107 47 180 0.0 0.0 0.00 0.00 0.00 65 1004.5
20260509110905 47 180 0.0 0.0 0.00 0.00 0.00 65 1004.5
20260509110737 47 180 0.0 0.0 0.00 0.00 0.00 62 1004.5
20260509110703 47 180 0.0 0.0 0.00 0.00 0.00 62 1004.5
20260509110532 47 180 0.0 0.0 0.00 0.00 0.00 62 1004.6
20260509110500 47 180 0.0 0.0 0.00 0.00 0.00 62 1004.6
20260509110449 47 180 0.0 0.0 0.00 0.00 0.00 63 1004.7
20260509110302 47 180 0.0 0.0 0.00 0.00 0.00 63 1004.7
20260509110057 47 180 0.0 0.0 0.00 0.00 0.00 59 1004.6
20260509105858 47 180 0.0 0.0 0.00 0.00 0.00 64 1004.6
20260509105703 47 180 0.0 0.0 0.00 0.00 0.00 61 1004.7
20260509105501 47 180 0.0 0.0 0.00 0.00 0.00 61 1004.7
20260509104855 47 180 0.0 0.0 0.00 0.00 0.00 61 1004.7
20260509104654 47 180 0.0 0.0 0.00 0.00 0.00 63 1004.7
20260509104448 47 180 0.0 0.0 0.00 0.00 0.00 60 1004.7
20260509104045 47 180 0.0 0.0 0.00 0.00 0.00 61 1004.7
20260509103855 46 180 0.0 0.0 0.00 0.00 0.00 61 1004.6
20260509103641 46 180 0.0 0.0 0.00 0.00 0.00 61 1004.7
20260509103515 46 180 0.0 0.0 0.00 0.00 0.00 60 1004.7
20260509103441 46 180 0.0 0.0 0.00 0.00 0.00 60 1004.7
20260509103040 46 180 0.0 0.0 0.00 0.00 0.00 63 1004.9
20260509102639 46 180 0.0 0.0 0.00 0.00 0.00 63 1004.9
20260509102511 46 180 0.0 0.0 0.00 0.00 0.00 63 1004.7
20260509102434 46 180 0.0 0.0 0.00 0.00 0.00 63 1004.7
20260509102331 46 180 0.0 0.0 0.00 0.00 0.00 63 1004.7
20260509102235 46 180 0.0 0.0 0.00 0.00 0.00 63 1004.7
20260509102032 46 180 0.0 0.0 0.00 0.00 0.00 64 1004.5
20260509101842 46 180 0.0 0.0 0.00 0.00 0.00 65 1004.6
20260509101636 46 180 0.0 0.0 0.00 0.00 0.00 65 1004.5
20260509101631 46 180 0.0 0.0 0.00 0.00 0.00 64 1004.5
20260509101431 46 180 0.0 0.0 0.00 0.00 0.00 63 1004.6
20260509101227 46 180 0.0 0.0 0.00 0.00 0.00 63 1004.5
20260509101029 46 180 0.0 0.0 0.00 0.00 0.00 64 1004.5
20260509100825 46 180 0.0 0.0 0.00 0.00 0.00 65 1004.5
20260509100625 46 180 0.0 0.0 0.00 0.00 0.00 65 1004.6
20260509100556 46 180 0.0 0.0 0.00 0.00 0.00 66 1004.5
20260509100423 46 180 0.0 0.0 0.00 0.00 0.00 64 1004.5
20260509100223 46 180 0.0 0.0 0.00 0.00 0.00 66 1004.5
20260509100022 46 180 0.0 0.0 0.00 0.00 0.00 65 1004.5
20260509095823 45 180 0.0 0.0 0.00 0.00 0.00 65 1004.5
20260509095734 46 180 0.0 0.0 0.00 0.00 0.00 65 1004.5
20260509095724 45 180 0.0 0.0 0.00 0.00 0.00 64 1004.5
20260509095618 46 180 0.0 0.0 0.00 0.00 0.00 65 1004.5
20260509095418 45 180 0.0 0.0 0.00 0.00 0.00 64 1004.5
20260509095215 45 180 0.0 0.0 0.00 0.00 0.00 65 1004.5
20260509095019 45 180 0.0 0.0 0.00 0.00 0.00 66 1004.3
20260509094812 45 180 0.0 0.0 0.00 0.00 0.00 65 1004.5
20260509094613 45 180 0.0 0.0 0.00 0.00 0.00 65 1004.3
20260509094411 45 180 0.0 0.0 0.00 0.00 0.00 66 1004.5
20260509094216 45 180 0.0 0.0 0.00 0.00 0.00 65 1004.3
20260509094041 45 180 0.0 0.0 0.00 0.00 0.00 64 1004.3
20260509094008 45 180 0.0 0.0 0.00 0.00 0.00 64 1004.3
20260509093806 45 180 0.0 0.0 0.00 0.00 0.00 66 1004.3
20260509093605 45 180 0.0 0.0 0.00 0.00 0.00 68 1004.3
20260509093205 44 180 0.0 0.0 0.00 0.00 0.00 69 1004.2
20260509093002 44 180 0.0 0.0 0.00 0.00 0.00 69 1004.3
20260509092801 44 180 0.0 0.0 0.00 0.00 0.00 69 1004.5
20260509092357 44 180 0.0 0.0 0.00 0.00 0.00 66 1004.5
20260509092158 44 180 0.0 0.0 0.00 0.00 0.00 66 1004.5
20260509091758 44 180 0.0 0.0 0.00 0.00 0.00 66 1004.3
20260509091553 44 180 0.0 0.0 0.00 0.00 0.00 65 1004.5
20260509091352 44 180 0.0 0.0 0.00 0.00 0.00 64 1004.5
20260509091152 43 180 0.0 0.0 0.00 0.00 0.00 64 1004.2
20260509090949 44 180 0.0 0.0 0.00 0.00 0.00 63 1004.2
20260509090546 43 180 0.0 0.0 0.00 0.00 0.00 64 1004.2
20260509090349 43 180 0.0 0.0 0.00 0.00 0.00 65 1004.2
20260509085137 43 180 0.0 0.0 0.00 0.00 0.00 65 1004.2
20260509084937 43 180 0.0 0.0 0.00 0.00 0.00 65 1004.2
20260509084733 44 180 0.0 0.0 0.00 0.00 0.00 64 1004.2
20260509084532 44 180 0.0 0.0 0.00 0.00 0.00 63 1004.2
20260509084131 44 180 0.0 0.0 0.00 0.00 0.00 61 1004.2
20260509083929 44 180 0.0 0.0 0.00 0.00 0.00 61 1004.2
20260509083728 44 180 0.0 0.0 0.00 0.00 0.00 61 1004.1
20260509083527 44 180 0.0 0.0 0.00 0.00 0.00 62 1004.0
20260509083123 44 180 0.0 0.0 0.00 0.00 0.00 62 1004.0
20260509082957 44 180 0.0 0.0 0.00 0.00 0.00 62 1004.1
20260509082922 44 180 0.0 0.0 0.00 0.00 0.00 62 1004.1
20260509082719 44 180 0.0 0.0 0.00 0.00 0.00 64 1004.0
20260509082519 44 180 0.0 0.0 0.00 0.00 0.00 64 1004.1
20260509082317 44 180 0.0 0.0 0.00 0.00 0.00 65 1004.1
20260509082117 44 180 0.0 0.0 0.00 0.00 0.00 64 1004.2
20260509081916 44 180 0.0 0.0 0.00 0.00 0.00 61 1004.2
20260509081716 44 180 0.0 0.0 0.00 0.00 0.00 61 1004.1
20260509081546 44 180 0.0 0.0 0.00 0.00 0.00 56 1004.1
20260509081512 44 180 0.0 0.0 0.00 0.00 0.00 56 1004.1
20260509081312 44 180 0.0 0.0 0.00 0.00 0.00 56 1004.1
20260509081109 44 180 0.0 0.0 0.00 0.00 0.00 58 1004.0
20260509080909 44 180 0.0 0.0 0.00 0.00 0.00 56 1004.1
20260509080707 44 180 0.0 0.0 0.00 0.00 0.00 57 1004.1
20260509080507 44 180 0.0 0.0 0.00 0.00 0.00 59 1004.2
20260509080304 44 180 0.0 0.0 0.00 0.00 0.00 57 1004.2
20260509080104 44 180 0.0 0.0 0.00 0.00 0.00 58 1004.1
20260509075702 44 180 0.0 0.0 0.00 0.00 0.00 54 1004.1
20260509075459 44 180 0.0 0.0 0.00 0.00 0.00 53 1004.1
20260509075259 44 180 0.0 0.0 0.00 0.00 0.00 54 1004.2
20260509075056 44 180 0.0 0.0 0.00 0.00 0.00 54 1004.2
20260509074857 44 180 0.0 0.0 0.00 0.00 0.00 55 1004.3
20260509074655 44 180 0.0 0.0 0.00 0.00 0.00 54 1004.1
20260509074454 44 180 0.0 0.0 0.00 0.00 0.00 50 1004.2
20260509074252 44 180 0.0 0.0 0.00 0.00 0.00 55 1004.2
20260509074052 43 180 0.0 0.0 0.00 0.00 0.00 54 1004.2
20260509073849 43 180 0.0 0.0 0.00 0.00 0.00 53 1004.2
20260509073649 43 180 0.0 0.0 0.00 0.00 0.00 53 1004.2
20260509073447 43 180 0.0 0.0 0.00 0.00 0.00 57 1004.3
20260509073256 43 180 0.0 0.0 0.00 0.00 0.00 56 1004.3
20260509073046 43 180 0.0 0.0 0.00 0.00 0.00 56 1004.3
20260509072642 42 180 0.0 0.0 0.00 0.00 0.00 59 1004.5
20260509072443 42 180 0.0 0.0 0.00 0.00 0.00 60 1004.5
20260509072239 42 180 0.0 0.0 0.00 0.00 0.00 60 1004.5
20260509072040 42 180 0.0 0.0 0.00 0.00 0.00 65 1004.5
20260509071837 42 180 0.0 0.0 0.00 0.00 0.00 65 1004.5
20260509071637 42 180 0.0 0.0 0.00 0.00 0.00 65 1004.5
20260509071435 41 180 0.0 0.0 0.00 0.00 0.00 64 1004.5
20260509071240 41 180 0.0 0.0 0.00 0.00 0.00 63 1004.6
20260509071032 41 180 0.0 0.0 0.00 0.00 0.00 64 1004.6
20260509070631 41 180 0.0 0.0 0.00 0.00 0.00 66 1004.6
20260509070429 41 180 0.0 0.0 0.00 0.00 0.00 66 1004.7
20260509070239 41 180 0.0 0.0 0.00 0.00 0.00 64 1004.7
20260509070027 41 180 0.0 0.0 0.00 0.00 0.00 64 1004.7
20260509065836 41 180 0.0 0.0 0.00 0.00 0.00 64 1004.7
20260509065624 41 180 0.0 0.0 0.00 0.00 0.00 63 1004.7
20260509065422 41 180 0.0 0.0 0.00 0.00 0.00 63 1004.6
20260509065228 41 180 0.0 0.0 0.00 0.00 0.00 63 1004.6
20260509065026 41 180 0.0 0.0 0.00 0.00 0.00 65 1004.7
20260509064622 41 180 0.0 0.0 0.00 0.00 0.00 61 1004.6
20260509064423 41 180 0.0 0.0 0.00 0.00 0.00 58 1004.7
20260509064214 41 180 0.0 0.0 0.00 0.00 0.00 64 1004.7
20260509064015 41 180 0.0 0.0 0.00 0.00 0.00 61 1004.7
20260509063812 41 180 0.0 0.0 0.00 0.00 0.00 66 1004.7
20260509063410 41 180 0.0 0.0 0.00 0.00 0.00 64 1004.7
20260509063210 41 180 0.0 0.0 0.00 0.00 0.00 56 1004.6
20260509063007 41 180 0.0 0.0 0.00 0.00 0.00 56 1004.7
20260509062807 40 180 0.0 0.0 0.00 0.00 0.00 61 1004.7
20260509062640 40 180 0.0 0.0 0.00 0.00 0.00 62 1004.6
20260509062605 40 180 0.0 0.0 0.00 0.00 0.00 62 1004.6
20260509062405 40 180 0.0 0.0 0.00 0.00 0.00 65 1004.7
20260509062202 40 180 0.0 0.0 0.00 0.00 0.00 65 1004.6
20260509062002 40 180 0.0 0.0 0.00 0.00 0.00 63 1004.6
20260509061606 40 180 0.0 0.0 0.00 0.00 0.00 66 1004.5
20260509061158 40 180 0.0 0.0 0.00 0.00 0.00 66 1004.7
20260509060955 40 180 0.0 0.0 0.00 0.00 0.00 67 1004.7
20260509060755 40 180 0.0 0.0 0.00 0.00 0.00 66 1004.7
20260509060552 40 180 0.0 0.0 0.00 0.00 0.00 66 1004.6
20260509060352 40 180 0.0 0.0 0.00 0.00 0.00 60 1004.7
20260509060223 40 180 0.0 0.0 0.00 0.00 0.00 60 1004.6
20260509060150 40 180 0.0 0.0 0.00 0.00 0.00 60 1004.6
20260509055950 40 180 0.0 0.0 0.00 0.00 0.00 56 1004.6
20260509055748 40 180 0.0 0.0 0.00 0.00 0.00 61 1004.5
20260509055555 40 180 0.0 0.0 0.00 0.00 0.00 61 1004.5
20260509055345 40 180 0.0 0.0 0.00 0.00 0.00 60 1004.5